DMSP 5D-2 F13 DEB, 40498

Orbit data source: Space-Track

DMSP 5D-2 F13 DEB, 40498 is space debris in SSO originally from a launch on Fri, 24 Mar 1995 UTC launched from the Air Force Western Test Range (AFWTR). Debris objects in space refer to the collection of defunct objects orbiting the Earth. Examples of debris include non-operational satellites, rocket bodies, and fragments generated from explosions, collisions, or faulty payload assembly.

Loading next visibility...
Identifier
40498, 1995-015CM
Orbit
SSO
Country
Flag of USUS
Related business
Manufacturer
Unknown
Mission
Spacecraft
Bus & Motor
Unknown
Mass
Unknown
Launch date (UTC)
1995-03-24 (31 years ago)
Launch vehicle
Unknown
Launch site
Air Force Western Test Range (AFWTR)
Object type
Payload
Rocket body
Debris
Shape & HBR
Unknown shape, 0.1 m
Radar Cross Section
Small (<0.1 m²)

Expand to show TLE details & history
Last TLE update: 8 hours ago

TLE from 8 hours ago
0 DMSP 5D-2 F13 DEB
1 40498U 95015CM  26133.34645448  .00002458  00000-0  93412-3 0  9999
2 40498  98.8781 166.7302 0025993   0.6272 359.4938 14.31759176577248
Epoch: 2026-05-13T08:18Z
TLE epoch observation values (Epoch: 2026-05-13T08:18:53.667Z)
Latitude
-0.00006°
Longitude
170.8988°
Altitude
770.157 km
Speed
7.479 km/s
True Right ascension
11h 06m 55s
True Declination
0° 00' 00"
Sunlit
Object was in daylight at epoch
Visualization orbit readout
Latitude
Unknown
Longitude
Unknown
Altitude
Unknown
Speed
Unknown
Apparent Right ascension
Unknown
Apparent Declination
Unknown
Sunlit
N/A
Visualization observer readout
Local Sidereal Time
00:16:51
Azimuth
Unknown
Elevation
Unknown
Doppler factor
Unknown
Orbital elements
Apogee altitude
801.622 km
Perigee altitude
764.394 km
Semi-major axis
7,161.145 km
Eccentricity
0.0026
Inclination
98.8781°
RAAN
166.7302°
Arg. of periapsis
0.6272°
True anomaly
359.49116°
Mean anomaly
359.4938°
Eccentric anomaly
359.49248°
Mean motion
3.58154 °/min
Orbital period
100.52 mins
BSTAR
0.00093412
Loading maneuver chart data...
Computing Atmospheric mass density...

Documentation

Showing up to 5 results
|